Weather History for KLFI - September, 2013

Change the Weather History Date:

Tuesday, September 24, 2013

  Actual Average Record
Temperature  
Mean Temperature 60 °F -  
Max Temperature 72 °F 74 °F 95 °F (2010)
Min Temperature 50 °F 59 °F 44 °F (1967)
Degree Days  
Heating Degree Days 4    
Growing Degree Days 10 (Base 50)    
Moisture  
Dew Point 52 °F    
Average Humidity 73    
Maximum Humidity 99    
Minimum Humidity 46    
Precipitation  
Precipitation 0.00 in - - ()
Sea Level Pressure  
Sea Level Pressure 30.05 in    
Wind  
Wind Speed 4 mph (NW)    
Max Wind Speed 8 mph    
Max Gust Speed 23 mph    
Visibility 8 miles    
Events Rain    
Averages and records for this station are not official NWS values.
T = Trace of Precipitation, MM = Missing Value Source: NWS Daily Summary

Daily Weather History Graph

Daily Weather History Graph

Search for Another Location

Airport or City:

Trip Planner

Search our weather history database for the weather conditions in past years. The results will help you decide how hot, cold, wet, or windy it might be!

Date:

Astronomy

Sep. 24, 2013 Rise Set
Actual Time 6:55 AM EDT 6:58 PM EDT
Civil Twilight 6:29 AM EDT 7:24 PM EDT
Nautical Twilight 5:58 AM EDT 7:55 PM EDT
Astronomical Twilight 5:28 AM EDT 8:25 PM EDT
Moon 10:22 PM EDT (9/24) 12:00 PM EDT (9/24)
Length of Visible Light 12h 55m
Length of Day
12h 03m
Waning Gibbous, 73% of the Moon is Illuminated
Sep 24
Waning Gibbous
Sep 26
Last Quarter
Oct 4
New
Oct 11
First Quarter
Oct 18
Full

Hourly Weather History & Observations

Time (EDT) Temp. Dew Point Humidity Pressure Visibility Wind Dir Wind Speed Gust Speed Precip Events Conditions
12:58 AM 52.3 °F 52.0 °F 99% 30.10 in 10.0 mi West 1.2 mph - N/A   Clear
1:58 AM 51.6 °F 50.4 °F 95% 30.11 in 10.0 mi Calm Calm - N/A   Clear
2:58 AM 51.8 °F 50.7 °F 96% 30.10 in 10.0 mi West 2.3 mph - N/A   Clear
3:58 AM 50.4 °F 50.0 °F 99% 30.10 in 10.0 mi WNW 6.9 mph - N/A   Clear
4:58 AM 52.0 °F 48.9 °F 89% 30.10 in 10.0 mi WNW 5.8 mph - N/A   Clear
5:58 AM 51.1 °F 48.2 °F 90% 30.10 in 10.0 mi NW 4.6 mph - N/A   Clear
6:58 AM 50.9 °F 50.5 °F 99% 30.11 in 10.0 mi NW 5.8 mph - N/A   Clear
7:58 AM 54.3 °F 53.1 °F 95% 30.12 in 10.0 mi NNW 5.8 mph - N/A   Clear
8:58 AM 60.6 °F 53.8 °F 78% 30.12 in 10.0 mi NW 6.9 mph - N/A   Clear
9:48 AM 64.4 °F 51.8 °F 64% 30.10 in 2.5 mi NNW 8.1 mph - N/A   Haze
9:53 AM 64.4 °F 51.8 °F 64% 30.10 in 10.0 mi NNW 5.8 mph - N/A   Clear
9:58 AM 64.2 °F 50.9 °F 62% 30.12 in 10.0 mi North 6.9 mph - N/A   Clear
10:58 AM 66.6 °F 49.1 °F 53% 30.11 in 10.0 mi Variable 5.8 mph - N/A   Clear
11:58 AM 68.5 °F 48.7 °F 49% 30.10 in 10.0 mi North 6.9 mph - N/A   Clear
12:58 PM 70.0 °F 51.1 °F 51% 30.07 in 10.0 mi Variable 4.6 mph - N/A   Clear
1:09 PM 69.8 °F 50.0 °F 49% 30.05 in 10.0 mi WNW 8.1 mph 23.0 mph N/A   Partly Cloudy
1:21 PM 69.8 °F 51.8 °F 53% 30.04 in 10.0 mi Variable 2.3 mph - N/A Rain Light Rain
1:22 PM 69.8 °F 51.8 °F 53% 30.04 in 10.0 mi Variable 2.3 mph - N/A   Clear
1:58 PM 71.6 °F 50.0 °F 46% 30.03 in 10.0 mi North 8.1 mph - N/A   Clear
2:58 PM 71.6 °F 51.8 °F 50% 30.01 in 10.0 mi North 4.6 mph - N/A   Clear
3:58 PM 71.8 °F 51.6 °F 49% 30.00 in 10.0 mi West 4.6 mph - N/A   Clear
4:58 PM 71.2 °F 54.7 °F 56% 29.99 in 7.0 mi ESE 8.1 mph - N/A   Clear
5:58 PM 70.0 °F 53.8 °F 56% 29.99 in 10.0 mi Variable 3.5 mph - N/A   Clear
6:43 PM 66.2 °F 53.6 °F 64% 29.97 in 2.5 mi Calm Calm - N/A   Haze
6:48 PM 66.2 °F 53.6 °F 64% 29.97 in 3.0 mi NNE 1.2 mph - N/A   Haze
6:58 PM 66.2 °F 54.7 °F 66% 29.99 in 10.0 mi Calm Calm - N/A   Clear
7:18 PM 64.4 °F 55.4 °F 73% 29.97 in 3.0 mi NE 3.5 mph - N/A   Haze
7:33 PM 62.6 °F 53.6 °F 72% 29.97 in 4.0 mi NNE 2.3 mph - N/A   Haze
7:58 PM 60.8 °F 55.6 °F 83% 30.00 in 4.0 mi Calm Calm - N/A   Haze
8:58 PM 57.7 °F 56.5 °F 96% 30.00 in 4.0 mi WSW 3.5 mph - N/A   Clear
9:58 PM 56.8 °F 56.7 °F 99% 30.00 in 4.0 mi WSW 2.3 mph - N/A   Clear
10:58 PM 56.5 °F 56.3 °F 99% 30.00 in 5.0 mi SW 1.2 mph - N/A   Clear
11:58 PM 56.3 °F 56.1 °F 99% 30.00 in 5.0 mi WSW 2.3 mph - N/A   Clear